DAL4522 KBOS-KTVC

Flight info

Callsign DAL4522
Flight time 1h 54m
Altitude 32000
Route HYLND7 HYLND HANAA Q816 AHPAH Q140 RUBKI CGG
Aircraft B738/M-SDE2E3FGHIRWXY/LB1

Departure

Time 2026-05-06 11:32
Airport Boston Logan International Airport (KBOS)

Arrival

Time 2026-05-06 13:26
Airport Cherry Capital Airport (KTVC)
Time Latitude Longitude Altitude Speed Heading
2026-05-06 11:14 42.36227 -71.02440 25 ft 0 kts 273°
2026-05-06 11:23 42.36226 -71.02415 28 ft 4 kts 275°
2026-05-06 11:23 42.36226 -71.02379 26 ft 4 kts 256°
2026-05-06 11:23 42.36237 -71.02350 28 ft 4 kts 211°
2026-05-06 11:23 42.36252 -71.02344 28 ft 1 kts 184°
2026-05-06 11:24 42.36254 -71.02343 27 ft 1 kts 184°
2026-05-06 11:25 42.36249 -71.02344 25 ft 5 kts 184°
2026-05-06 11:25 42.36190 -71.02349 26 ft 11 kts 184°
2026-05-06 11:25 42.36103 -71.02334 27 ft 15 kts 150°
2026-05-06 11:26 42.36019 -71.02227 26 ft 17 kts 120°
2026-05-06 11:26 42.35958 -71.02090 28 ft 17 kts 121°
2026-05-06 11:26 42.35901 -71.01959 26 ft 16 kts 120°
2026-05-06 11:26 42.35853 -71.01828 27 ft 15 kts 104°
2026-05-06 11:27 42.35831 -71.01690 26 ft 15 kts 101°
2026-05-06 11:27 42.35851 -71.01570 26 ft 15 kts 31°
2026-05-06 11:27 42.35959 -71.01515 25 ft 19 kts 20°
2026-05-06 11:27 42.36089 -71.01452 28 ft 21 kts 19°
2026-05-06 11:28 42.36237 -71.01380 22 ft 25 kts 20°
2026-05-06 11:28 42.36404 -71.01299 22 ft 26 kts 20°
2026-05-06 11:28 42.36574 -71.01216 25 ft 25 kts 20°
2026-05-06 11:28 42.36734 -71.01142 26 ft 24 kts 10°
2026-05-06 11:29 42.36880 -71.01206 22 ft 23 kts 11°
2026-05-06 11:29 42.37010 -71.01094 23 ft 22 kts 27°
2026-05-06 11:29 42.37145 -71.01005 20 ft 21 kts 26°
2026-05-06 11:29 42.37276 -71.00920 19 ft 21 kts 23°
2026-05-06 11:30 42.37408 -71.00852 20 ft 20 kts 20°
2026-05-06 11:30 42.37538 -71.00789 22 ft 19 kts 20°
2026-05-06 11:30 42.37663 -71.00729 24 ft 19 kts 19°
2026-05-06 11:30 42.37785 -71.00671 27 ft 18 kts 19°
2026-05-06 11:31 42.37828 -71.00541 27 ft 18 kts 108°
2026-05-06 11:31 42.37789 -71.00478 26 ft 6 kts 183°
2026-05-06 11:31 42.37704 -71.00515 27 ft 41 kts 199°
2026-05-06 11:31 42.37170 -71.00772 17 ft 119 kts 200°
2026-05-06 11:32 42.36207 -71.01235 182 ft 169 kts 199°
2026-05-06 11:32 42.35052 -71.01826 997 ft 181 kts 202°
2026-05-06 11:32 42.33827 -71.02124 1982 ft 187 kts 179°
2026-05-06 11:32 42.32654 -71.01143 2614 ft 221 kts 139°
2026-05-06 11:33 42.31841 -70.99261 3099 ft 239 kts 126°
2026-05-06 11:33 42.31203 -70.97166 3725 ft 247 kts 110°
2026-05-06 11:33 42.31219 -70.94771 4195 ft 268 kts 85°
2026-05-06 11:33 42.31603 -70.92242 4658 ft 279 kts 82°
2026-05-06 11:34 42.32033 -70.89634 5177 ft 290 kts 82°
2026-05-06 11:34 42.32463 -70.86957 5960 ft 292 kts 83°
2026-05-06 11:34 42.32879 -70.84274 6805 ft 292 kts 83°
2026-05-06 11:34 42.33289 -70.81556 7480 ft 299 kts 83°
2026-05-06 11:35 42.33715 -70.78780 8159 ft 306 kts 79°
2026-05-06 11:35 42.34684 -70.76173 8830 ft 318 kts 49°
2026-05-06 11:35 42.36455 -70.74391 9486 ft 320 kts 19°
2026-05-06 11:35 42.38562 -70.73418 10182 ft 321 kts 12°
2026-05-06 11:36 42.40718 -70.72567 10852 ft 325 kts 11°
2026-05-06 11:36 42.42910 -70.71715 11424 ft 332 kts
2026-05-06 11:36 42.45236 -70.71584 11581 ft 341 kts 343°
2026-05-06 11:36 42.47486 -70.72644 11778 ft 348 kts 326°
2026-05-06 11:37 42.49712 -70.74141 11978 ft 367 kts 326°
2026-05-06 11:37 42.52021 -70.75727 12464 ft 373 kts 323°
2026-05-06 11:37 42.53981 -70.77849 13110 ft 360 kts 303°
2026-05-06 11:37 42.55429 -70.80563 13849 ft 355 kts 296°
2026-05-06 11:38 42.56788 -70.83371 14467 ft 357 kts 296°
2026-05-06 11:38 42.58138 -70.86211 15085 ft 360 kts 296°
2026-05-06 11:38 42.59502 -70.89071 15710 ft 362 kts 296°
2026-05-06 11:38 42.60883 -70.91950 16334 ft 365 kts 297°
2026-05-06 11:39 42.62280 -70.94840 16941 ft 368 kts 297°
2026-05-06 11:39 42.63692 -70.97755 17535 ft 371 kts 297°
2026-05-06 11:39 42.65118 -71.00691 18120 ft 374 kts 297°
2026-05-06 11:39 42.66556 -71.03649 18633 ft 377 kts 297°
2026-05-06 11:40 42.68005 -71.06632 19135 ft 379 kts 297°
2026-05-06 11:40 42.69461 -71.09633 19630 ft 382 kts 297°
2026-05-06 11:40 42.70930 -71.12664 20126 ft 385 kts 297°
2026-05-06 11:40 42.72403 -71.15706 20615 ft 387 kts 297°
2026-05-06 11:41 42.73892 -71.18781 21086 ft 390 kts 297°
2026-05-06 11:41 42.75389 -71.21879 21548 ft 393 kts 297°
2026-05-06 11:41 42.76892 -71.24994 21997 ft 395 kts 297°
2026-05-06 11:41 42.78258 -71.28230 22428 ft 392 kts 287°
2026-05-06 11:42 42.79034 -71.31758 22855 ft 389 kts 280°
2026-05-06 11:42 42.79692 -71.35339 23305 ft 391 kts 279°
2026-05-06 11:42 42.80340 -71.38944 23673 ft 394 kts 279°
2026-05-06 11:42 42.80987 -71.42530 24038 ft 395 kts 279°
2026-05-06 11:43 42.81650 -71.46167 24433 ft 396 kts 279°
2026-05-06 11:43 42.82321 -71.49814 24828 ft 398 kts 280°
2026-05-06 11:43 42.83001 -71.53479 25185 ft 399 kts 280°
2026-05-06 11:44 42.84373 -71.60847 25934 ft 402 kts 280°
2026-05-06 11:44 42.85062 -71.64550 26285 ft 403 kts 280°
2026-05-06 11:44 42.85753 -71.68265 26620 ft 405 kts 280°
2026-05-06 11:44 42.86445 -71.71991 26954 ft 407 kts 281°
2026-05-06 11:45 42.87138 -71.75735 27281 ft 408 kts 281°
2026-05-06 11:45 42.87833 -71.79492 27602 ft 410 kts 281°
2026-05-06 11:45 42.88529 -71.83263 27915 ft 411 kts 281°
2026-05-06 11:45 42.89227 -71.87053 28211 ft 412 kts 281°
2026-05-06 11:46 42.89917 -71.90806 28513 ft 414 kts 281°
2026-05-06 11:46 42.90625 -71.94666 28817 ft 415 kts 281°
2026-05-06 11:46 42.91324 -71.98483 29206 ft 414 kts 281°
2026-05-06 11:46 42.92009 -72.02231 29694 ft 411 kts 281°
2026-05-06 11:47 42.92697 -72.05998 30146 ft 408 kts 281°
2026-05-06 11:47 42.93379 -72.09745 30466 ft 406 kts 281°
2026-05-06 11:47 42.94058 -72.13484 30821 ft 405 kts 281°
2026-05-06 11:47 42.94730 -72.17196 31203 ft 402 kts 281°
2026-05-06 11:48 42.95398 -72.20889 31598 ft 399 kts 281°
2026-05-06 11:48 42.96061 -72.24563 31873 ft 399 kts 281°
2026-05-06 11:48 42.97398 -72.32007 31867 ft 408 kts 281°
2026-05-06 11:49 42.98747 -72.39540 31874 ft 408 kts 281°
2026-05-06 11:49 43.00091 -72.47066 31871 ft 407 kts 281°
2026-05-06 11:50 43.01425 -72.54573 31866 ft 406 kts 281°
2026-05-06 11:50 43.02752 -72.62070 31868 ft 405 kts 280°
2026-05-06 11:51 43.04070 -72.69547 31856 ft 404 kts 280°
2026-05-06 11:51 43.05380 -72.77007 31864 ft 403 kts 280°
2026-05-06 11:52 43.06683 -72.84466 31857 ft 403 kts 280°
2026-05-06 11:52 43.07982 -72.91928 31837 ft 402 kts 280°
2026-05-06 11:53 43.09272 -72.99369 31840 ft 402 kts 279°
2026-05-06 11:53 43.10557 -73.06810 31846 ft 402 kts 279°
2026-05-06 11:54 43.11830 -73.14215 31842 ft 402 kts 279°
2026-05-06 11:54 43.13106 -73.21669 31845 ft 402 kts 279°
2026-05-06 11:55 43.14377 -73.29125 31841 ft 402 kts 279°
2026-05-06 11:55 43.15643 -73.36583 31837 ft 402 kts 279°
2026-05-06 11:56 43.16905 -73.44049 31847 ft 402 kts 279°
2026-05-06 11:56 43.18160 -73.51505 31848 ft 401 kts 279°
2026-05-06 11:57 43.19409 -73.58954 31846 ft 401 kts 278°
2026-05-06 11:57 43.20233 -73.66455 31854 ft 397 kts 272°
2026-05-06 11:58 43.20768 -73.73980 31839 ft 397 kts 272°
2026-05-06 11:58 43.21309 -73.81513 31837 ft 397 kts 272°
2026-05-06 11:59 43.21857 -73.89052 31824 ft 397 kts 272°
2026-05-06 11:59 43.22405 -73.96593 31829 ft 397 kts 272°
2026-05-06 12:00 43.22948 -74.04135 31825 ft 397 kts 272°
2026-05-06 12:00 43.23486 -74.11683 31814 ft 398 kts 272°
2026-05-06 12:01 43.24020 -74.19235 31827 ft 398 kts 271°
2026-05-06 12:01 43.24550 -74.26795 31825 ft 398 kts 271°
2026-05-06 12:02 43.25049 -74.34315 31828 ft 397 kts 270°
2026-05-06 12:02 43.25288 -74.41869 31830 ft 396 kts 269°
2026-05-06 12:03 43.25461 -74.49421 31826 ft 396 kts 269°
2026-05-06 12:03 43.25639 -74.56955 31825 ft 395 kts 269°
2026-05-06 12:04 43.25824 -74.64478 31832 ft 394 kts 269°
2026-05-06 12:04 43.26009 -74.71985 31830 ft 393 kts 269°
2026-05-06 12:05 43.26189 -74.79472 31829 ft 393 kts 269°
2026-05-06 12:05 43.26364 -74.86954 31835 ft 392 kts 269°
2026-05-06 12:06 43.26534 -74.94419 31834 ft 391 kts 268°
2026-05-06 12:06 43.26699 -75.01879 31836 ft 391 kts 268°
2026-05-06 12:07 43.26860 -75.09324 31847 ft 390 kts 268°
2026-05-06 12:07 43.27014 -75.16746 31851 ft 389 kts 268°
2026-05-06 12:08 43.27164 -75.24180 31847 ft 389 kts 268°
2026-05-06 12:08 43.27285 -75.30341 31853 ft 389 kts 268°
2026-05-06 12:09 43.27425 -75.37754 31855 ft 389 kts 268°
2026-05-06 12:09 43.27583 -75.46372 31847 ft 389 kts 268°
2026-05-06 12:10 43.27714 -75.53781 31853 ft 388 kts 267°
2026-05-06 12:10 43.27819 -75.59987 31862 ft 389 kts 267°
2026-05-06 12:11 43.27940 -75.67371 31854 ft 391 kts 267°
2026-05-06 12:11 43.28058 -75.74840 31838 ft 391 kts 267°
2026-05-06 12:12 43.28171 -75.82275 31850 ft 389 kts 266°
2026-05-06 12:12 43.28279 -75.89689 31856 ft 388 kts 266°
2026-05-06 12:13 43.28381 -75.97094 31857 ft 388 kts 266°
2026-05-06 12:13 43.28478 -76.04492 31855 ft 387 kts 266°
2026-05-06 12:14 43.28571 -76.11892 31859 ft 387 kts 266°
2026-05-06 12:14 43.28659 -76.19293 31869 ft 388 kts 266°
2026-05-06 12:15 43.28741 -76.26650 31867 ft 388 kts 266°
2026-05-06 12:15 43.28820 -76.34071 31873 ft 389 kts 265°
2026-05-06 12:16 43.28894 -76.41501 31872 ft 390 kts 265°
2026-05-06 12:16 43.28964 -76.48948 31873 ft 390 kts 265°
2026-05-06 12:17 43.29029 -76.56404 31874 ft 391 kts 265°
2026-05-06 12:17 43.29090 -76.63876 31871 ft 391 kts 265°
2026-05-06 12:18 43.29178 -76.71343 31884 ft 392 kts 265°
2026-05-06 12:18 43.29297 -76.78816 31871 ft 392 kts 265°
2026-05-06 12:19 43.29411 -76.86292 31889 ft 392 kts 265°
2026-05-06 12:19 43.29517 -76.93763 31886 ft 391 kts 265°
2026-05-06 12:20 43.29616 -77.01244 31906 ft 391 kts 265°
2026-05-06 12:20 43.29708 -77.08702 31898 ft 391 kts 265°
2026-05-06 12:21 43.29796 -77.16157 31903 ft 391 kts 265°
2026-05-06 12:21 43.29879 -77.23617 31899 ft 391 kts 265°
2026-05-06 12:22 43.29957 -77.31027 31901 ft 391 kts 265°
2026-05-06 12:22 43.30031 -77.38490 31896 ft 391 kts 265°
2026-05-06 12:23 43.30100 -77.45950 31890 ft 391 kts 265°
2026-05-06 12:23 43.30164 -77.53407 31891 ft 390 kts 265°
2026-05-06 12:24 43.30222 -77.60864 31891 ft 391 kts 265°
2026-05-06 12:24 43.30277 -77.68324 31892 ft 391 kts 264°
2026-05-06 12:25 43.30326 -77.75807 31887 ft 391 kts 264°
2026-05-06 12:25 43.30371 -77.83223 31889 ft 391 kts 264°
2026-05-06 12:26 43.30410 -77.90684 31893 ft 390 kts 264°
2026-05-06 12:26 43.30446 -77.98132 31888 ft 390 kts 264°
2026-05-06 12:27 43.30477 -78.05582 31884 ft 390 kts 264°
2026-05-06 12:27 43.30961 -78.13041 31890 ft 398 kts 274°
2026-05-06 12:28 43.32704 -78.20384 31895 ft 409 kts 283°
2026-05-06 12:28 43.34846 -78.27615 31887 ft 409 kts 283°
2026-05-06 12:29 43.36962 -78.34811 31888 ft 408 kts 282°
2026-05-06 12:29 43.39062 -78.42041 31888 ft 407 kts 282°
2026-05-06 12:30 43.41149 -78.49270 31890 ft 407 kts 282°
2026-05-06 12:30 43.43233 -78.56508 31894 ft 406 kts 282°
2026-05-06 12:31 43.45309 -78.63741 31891 ft 406 kts 282°
2026-05-06 12:31 43.47378 -78.70967 31896 ft 406 kts 282°
2026-05-06 12:32 43.49444 -78.78206 31896 ft 406 kts 282°
2026-05-06 12:32 43.51496 -78.85463 31895 ft 406 kts 282°
2026-05-06 12:33 43.53527 -78.92660 31894 ft 406 kts 282°
2026-05-06 12:33 43.55572 -78.99905 31891 ft 406 kts 282°
2026-05-06 12:34 43.57619 -79.07150 31889 ft 406 kts 282°
2026-05-06 12:34 43.59664 -79.14407 31889 ft 405 kts 282°
2026-05-06 12:35 43.61701 -79.21664 31889 ft 405 kts 282°
2026-05-06 12:35 43.63729 -79.28909 31886 ft 405 kts 282°
2026-05-06 12:36 43.65708 -79.36167 31878 ft 401 kts 279°
2026-05-06 12:36 43.67322 -79.43497 31882 ft 399 kts 278°
2026-05-06 12:37 43.68886 -79.50859 31880 ft 399 kts 278°
2026-05-06 12:37 43.70461 -79.58219 31875 ft 400 kts 278°
2026-05-06 12:38 43.72046 -79.65592 31875 ft 400 kts 278°
2026-05-06 12:38 43.73629 -79.72967 31876 ft 400 kts 278°
2026-05-06 12:39 43.75207 -79.80341 31877 ft 400 kts 278°
2026-05-06 12:39 43.76768 -79.87669 31872 ft 399 kts 278°
2026-05-06 12:40 43.78335 -79.95044 31882 ft 399 kts 278°
2026-05-06 12:40 43.79896 -80.02421 31885 ft 400 kts 278°
2026-05-06 12:41 43.81457 -80.09811 31878 ft 400 kts 278°
2026-05-06 12:41 43.83016 -80.17206 31884 ft 400 kts 278°
2026-05-06 12:42 43.84571 -80.24610 31880 ft 400 kts 278°
2026-05-06 12:42 43.86121 -80.32021 31884 ft 401 kts 278°
2026-05-06 12:43 43.87673 -80.39462 31871 ft 401 kts 279°
2026-05-06 12:43 43.89218 -80.46907 31873 ft 402 kts 279°
2026-05-06 12:44 43.90761 -80.54361 31877 ft 403 kts 279°
2026-05-06 12:44 43.92294 -80.61795 31877 ft 403 kts 279°
2026-05-06 12:45 43.93831 -80.69278 31879 ft 404 kts 279°
2026-05-06 12:46 43.96135 -80.80545 31875 ft 405 kts 279°
2026-05-06 12:46 43.97666 -80.88068 31882 ft 405 kts 279°
2026-05-06 12:47 43.99192 -80.95594 31883 ft 405 kts 279°
2026-05-06 12:47 44.00713 -81.03123 31889 ft 405 kts 279°
2026-05-06 12:48 44.02229 -81.10657 31895 ft 405 kts 280°
2026-05-06 12:48 44.03731 -81.18147 31897 ft 405 kts 280°
2026-05-06 12:49 44.05236 -81.25681 31897 ft 404 kts 280°
2026-05-06 12:49 44.06735 -81.33214 31903 ft 404 kts 280°
2026-05-06 12:50 44.08228 -81.40750 31907 ft 404 kts 280°
2026-05-06 12:50 44.09716 -81.48283 31909 ft 404 kts 280°
2026-05-06 12:51 44.11196 -81.55808 31922 ft 404 kts 279°
2026-05-06 12:51 44.12674 -81.63351 31931 ft 404 kts 279°
2026-05-06 12:52 44.14146 -81.70894 31942 ft 404 kts 279°
2026-05-06 12:52 44.15613 -81.78437 31956 ft 403 kts 279°
2026-05-06 12:53 44.17074 -81.85982 31961 ft 403 kts 279°
2026-05-06 12:53 44.18530 -81.93529 31968 ft 403 kts 279°
2026-05-06 12:54 44.19982 -82.01083 31973 ft 404 kts 279°
2026-05-06 12:54 44.21429 -82.08645 31971 ft 404 kts 279°
2026-05-06 12:55 44.22871 -82.16209 31971 ft 404 kts 279°
2026-05-06 12:55 44.24301 -82.23733 31973 ft 404 kts 279°
2026-05-06 12:56 44.25730 -82.31302 31963 ft 403 kts 279°
2026-05-06 12:56 44.27145 -82.38881 31964 ft 403 kts 279°
2026-05-06 12:57 44.28553 -82.46452 31962 ft 403 kts 279°
2026-05-06 12:57 44.29956 -82.54028 31960 ft 403 kts 279°
2026-05-06 12:58 44.31353 -82.61596 31960 ft 402 kts 279°
2026-05-06 12:58 44.32744 -82.69159 31958 ft 402 kts 279°
2026-05-06 12:59 44.33895 -82.75438 31962 ft 401 kts 279°
2026-05-06 12:59 44.35272 -82.82986 31964 ft 401 kts 279°
2026-05-06 13:00 44.36644 -82.90529 31964 ft 400 kts 279°
2026-05-06 13:00 44.37878 -82.97345 31961 ft 400 kts 279°
2026-05-06 13:01 44.39227 -83.04810 31952 ft 389 kts 279°
2026-05-06 13:01 44.40540 -83.12113 31963 ft 386 kts 279°
2026-05-06 13:01 44.41191 -83.15755 31799 ft 388 kts 278°
2026-05-06 13:02 44.41848 -83.19443 31250 ft 390 kts 278°
2026-05-06 13:02 44.42502 -83.23111 30615 ft 388 kts 278°
2026-05-06 13:02 44.43156 -83.26784 29887 ft 389 kts 278°
2026-05-06 13:02 44.43800 -83.30414 29169 ft 388 kts 278°
2026-05-06 13:03 44.44446 -83.34045 28626 ft 382 kts 278°
2026-05-06 13:03 44.45091 -83.37679 28088 ft 377 kts 278°
2026-05-06 13:03 44.45716 -83.41211 27546 ft 372 kts 278°
2026-05-06 13:03 44.46333 -83.44708 27031 ft 368 kts 278°
2026-05-06 13:04 44.46934 -83.48121 26515 ft 363 kts 278°
2026-05-06 13:04 44.47542 -83.51583 25992 ft 359 kts 278°
2026-05-06 13:04 44.48135 -83.54966 25503 ft 356 kts 278°
2026-05-06 13:04 44.48712 -83.58270 25009 ft 352 kts 278°
2026-05-06 13:05 44.49291 -83.61587 24513 ft 349 kts 278°
2026-05-06 13:05 44.49865 -83.64880 24026 ft 346 kts 278°
2026-05-06 13:05 44.50431 -83.68141 23525 ft 344 kts 278°
2026-05-06 13:05 44.50994 -83.71383 22961 ft 341 kts 278°
2026-05-06 13:06 44.51550 -83.74594 22439 ft 337 kts 278°
2026-05-06 13:06 44.52100 -83.77770 21957 ft 333 kts 278°
2026-05-06 13:06 44.52642 -83.80906 21475 ft 330 kts 278°
2026-05-06 13:06 44.53179 -83.84020 20996 ft 327 kts 278°
2026-05-06 13:07 44.53709 -83.87099 20544 ft 323 kts 278°
2026-05-06 13:07 44.54232 -83.90147 20086 ft 320 kts 278°
2026-05-06 13:07 44.54751 -83.93173 19636 ft 318 kts 278°
2026-05-06 13:07 44.55264 -83.96170 19184 ft 315 kts 278°
2026-05-06 13:08 44.55774 -83.99158 18752 ft 313 kts 278°
2026-05-06 13:08 44.56279 -84.02117 18313 ft 312 kts 278°
2026-05-06 13:08 44.56781 -84.05070 17823 ft 310 kts 278°
2026-05-06 13:08 44.57280 -84.08005 17383 ft 308 kts 278°
2026-05-06 13:09 44.57775 -84.10930 16930 ft 309 kts 278°
2026-05-06 13:09 44.58272 -84.13866 16488 ft 309 kts 279°
2026-05-06 13:09 44.58772 -84.16833 16058 ft 318 kts 279°
2026-05-06 13:09 44.59288 -84.19904 15615 ft 328 kts 280°
2026-05-06 13:10 44.59812 -84.23019 15151 ft 327 kts 280°
2026-05-06 13:10 44.60335 -84.26116 14689 ft 325 kts 281°
2026-05-06 13:10 44.60853 -84.29192 14242 ft 323 kts 281°
2026-05-06 13:10 44.61367 -84.32255 13787 ft 322 kts 281°
2026-05-06 13:11 44.61878 -84.35303 13290 ft 321 kts 282°
2026-05-06 13:11 44.62386 -84.38340 12813 ft 319 kts 282°
2026-05-06 13:11 44.62892 -84.41367 12354 ft 317 kts 282°
2026-05-06 13:11 44.63385 -84.44328 11923 ft 315 kts 282°
2026-05-06 13:12 44.63882 -84.47313 11736 ft 301 kts 282°
2026-05-06 13:12 44.64338 -84.50056 11591 ft 284 kts 282°
2026-05-06 13:12 44.64773 -84.52680 11445 ft 267 kts 282°
2026-05-06 13:12 44.65186 -84.55173 11363 ft 259 kts 282°
2026-05-06 13:13 44.65591 -84.57623 11261 ft 256 kts 282°
2026-05-06 13:13 44.65992 -84.60057 11147 ft 256 kts 282°
2026-05-06 13:13 44.66391 -84.62485 11046 ft 254 kts 282°
2026-05-06 13:13 44.66785 -84.64878 10869 ft 250 kts 282°
2026-05-06 13:14 44.67178 -84.67269 10599 ft 252 kts 282°
2026-05-06 13:14 44.67572 -84.69676 10343 ft 254 kts 282°
2026-05-06 13:14 44.67969 -84.72092 10043 ft 254 kts 282°
2026-05-06 13:14 44.68290 -84.74527 9797 ft 253 kts 277°
2026-05-06 13:15 44.68505 -84.76985 9503 ft 253 kts 276°
2026-05-06 13:15 44.68697 -84.79443 9235 ft 254 kts 276°
2026-05-06 13:15 44.68892 -84.81905 8921 ft 251 kts 276°
2026-05-06 13:15 44.69084 -84.84310 8615 ft 245 kts 277°
2026-05-06 13:16 44.69274 -84.86667 8342 ft 240 kts 277°
2026-05-06 13:16 44.69458 -84.88944 8014 ft 235 kts 277°
2026-05-06 13:16 44.69642 -84.91200 7727 ft 230 kts 277°
2026-05-06 13:16 44.69823 -84.93398 7438 ft 223 kts 277°
2026-05-06 13:17 44.69998 -84.95538 7169 ft 217 kts 277°
2026-05-06 13:17 44.70168 -84.97609 6915 ft 210 kts 278°
2026-05-06 13:17 44.70340 -84.99612 6655 ft 204 kts 279°
2026-05-06 13:17 44.70585 -85.01559 6385 ft 201 kts 282°
2026-05-06 13:18 44.70861 -85.03480 6091 ft 201 kts 282°
2026-05-06 13:18 44.71142 -85.05402 5790 ft 201 kts 282°
2026-05-06 13:18 44.71429 -85.07329 5500 ft 201 kts 282°
2026-05-06 13:18 44.71718 -85.09262 5205 ft 203 kts 282°
2026-05-06 13:19 44.71943 -85.11218 4918 ft 203 kts 276°
2026-05-06 13:19 44.72071 -85.13203 4676 ft 203 kts 276°
2026-05-06 13:19 44.72183 -85.15215 4629 ft 207 kts 275°
2026-05-06 13:19 44.72278 -85.17199 4606 ft 205 kts 274°
2026-05-06 13:20 44.72367 -85.19222 4613 ft 205 kts 274°
2026-05-06 13:20 44.72451 -85.21200 4611 ft 206 kts 274°
2026-05-06 13:20 44.72537 -85.23229 4596 ft 203 kts 274°
2026-05-06 13:20 44.72618 -85.25157 4583 ft 192 kts 274°
2026-05-06 13:21 44.72695 -85.26961 4581 ft 182 kts 274°
2026-05-06 13:21 44.72768 -85.28692 4568 ft 176 kts 274°
2026-05-06 13:21 44.72843 -85.30416 4390 ft 176 kts 274°
2026-05-06 13:21 44.72917 -85.32120 4150 ft 174 kts 274°
2026-05-06 13:22 44.72991 -85.33819 3904 ft 174 kts 274°
2026-05-06 13:22 44.73065 -85.35517 3665 ft 174 kts 274°
2026-05-06 13:22 44.73139 -85.37223 3422 ft 175 kts 274°
2026-05-06 13:22 44.73214 -85.38934 3176 ft 174 kts 275°
2026-05-06 13:23 44.73286 -85.40590 2925 ft 163 kts 274°
2026-05-06 13:23 44.73354 -85.42119 2732 ft 150 kts 275°
2026-05-06 13:23 44.73419 -85.43595 2526 ft 151 kts 275°
2026-05-06 13:23 44.73482 -85.45050 2279 ft 146 kts 275°
2026-05-06 13:24 44.73549 -85.46460 2081 ft 145 kts 274°
2026-05-06 13:24 44.73610 -85.47879 1886 ft 146 kts 275°
2026-05-06 13:24 44.73676 -85.49315 1671 ft 148 kts 275°
2026-05-06 13:24 44.73742 -85.50763 1451 ft 149 kts 275°
2026-05-06 13:25 44.73811 -85.52224 1232 ft 151 kts 274°
2026-05-06 13:25 44.73874 -85.53702 1016 ft 152 kts 273°
2026-05-06 13:25 44.73936 -85.55177 820 ft 151 kts 274°
2026-05-06 13:25 44.74007 -85.56636 633 ft 148 kts 274°
2026-05-06 13:26 44.74065 -85.57874 633 ft 103 kts 274°
2026-05-06 13:26 44.74088 -85.58392 628 ft 19 kts 274°
2026-05-06 13:26 44.74082 -85.58592 629 ft 18 kts 231°
2026-05-06 13:26 44.73981 -85.58566 630 ft 14 kts 115°
2026-05-06 13:27 44.73979 -85.58423 632 ft 16 kts 93°
2026-05-06 13:27 44.73972 -85.58265 631 ft 17 kts 94°
2026-05-06 13:27 44.73954 -85.58103 628 ft 15 kts 128°
2026-05-06 13:27 44.73855 -85.58090 631 ft 15 kts 185°
2026-05-06 13:28 44.73767 -85.58077 626 ft 9 kts 125°
2026-05-06 13:28 44.73754 -85.58030 636 ft 0 kts 109°